User: anonymous   Login
Location: Unspecified
(0.0000°N, 0.0000°E)
Time: 04:17:25
(UTC+00:00)
Language:

GEOEYE 1 - Orbit

View from above orbital plane
View from above orbital plane
View from above satellite
View from above satellite

Ground track
Ground track

The orbit data is extracted from the following two-line orbital elements,

1 33331U 08042A   15028.54879715  .00000427  00000-0  89747-4 0   284
2 33331 098.1207 105.6179 0010439 116.5476 243.6808 14.64396719341692
Epoch (UTC): 28 January 2015 13:10:16
Eccentricity: 0.0010439
inclination: 98.1207°
perigee height: 671 km
apogee height: 686 km
right ascension of ascending node: 105.6179°
argument of perigee: 116.5476°
revolutions per day: 14.64396719
mean anomaly at epoch: 243.6808°
orbit number at epoch: 34169

The dashed part of the orbit path shows where the satellite is in the earth's shadow,  

DLR